Tracking 31027 objects as of 19-Jul-2025
HD Live streaming from Space Station
objects crossing your sky now

SHIYAN 13 (SY-13)

Track SHIYAN 13 (SY-13) now!
10-day predictions


NORAD ID: 51102
Int'l Code: 2022-004A
Perigee: 395.6 km
Apogee: 1,282.3 km
Inclination: 98.5 °
Period: 101.5 minutes
Semi major axis: 7209 km
RCS: Unknown
Launch date: January 17, 2022
Source: People's Republic of China (PRC)
Launch site: Taiyaun Space Center, China (TSC)
Your satellite tracking list
LANDSAT 5
Track 1 satellite(s)




NASA's NSSDC Master Catalog

Two Line Element Set (TLE):
1 51102U 22004A   25199.54513230  .00002972  00000-0  20198-3 0  9999
2 51102  98.4868 226.3321 0614872  86.0630 281.0569 14.18093564179968
Source of the keplerian elements: AFSPC